EW5390 Weather Reports


Display with metric or nautical units.
time (UTC)temp
F
wind
direction
speed
MPH
gust
MPH
rain 1hr
in
rain 24hr
in
rain mn
in
humidity
%
barometer
mb
20260902120101 73 70 0.0 2.0 0.00 0.47 0.03 98 1018.5
20260902115553 73 0 0.0 4.0 0.00 0.47 0.03 98 1018.5
20260902115053 73 66 0.0 4.0 0.00 0.47 0.03 98 1018.6
20260902114557 73 66 2.0 4.0 0.00 0.47 0.03 98 1018.6
20260902114051 73 69 0.0 1.0 0.00 0.47 0.03 98 1018.5
20260902113550 73 68 0.0 1.0 0.00 0.47 0.03 98 1018.5
20260902113054 73 0 0.0 1.0 0.00 0.47 0.03 98 1018.5
20260902112553 72 68 0.0 1.0 0.00 0.47 0.03 98 1018.5
20260902112054 72 0 0.0 1.0 0.00 0.47 0.03 98 1018.4
20260902111601 72 0 0.0 2.0 0.00 0.47 0.03 98 1018.3
20260902111051 72 0 0.0 2.0 0.00 0.47 0.03 98 1018.4
20260902110554 72 0 1.0 2.0 0.00 0.47 0.03 98 1018.4
20260902110057 72 65 0.0 2.0 0.00 0.47 0.03 98 1018.3
20260902105552 72 0 1.0 2.0 0.00 0.47 0.03 98 1018.2
20260902105053 72 64 0.0 1.0 0.00 0.47 0.03 98 1018.2
20260902104556 72 65 0.0 1.0 0.00 0.47 0.03 98 1018.1
20260902104053 72 64 0.0 1.0 0.00 0.47 0.03 98 1018.1
20260902103550 72 0 0.0 1.0 0.00 0.47 0.03 98 1018.0
20260902103055 72 64 0.0 3.0 0.00 0.47 0.03 98 1018.1
20260902102555 72 0 1.0 3.0 0.00 0.47 0.03 98 1018.0
20260902102053 72 63 2.0 3.0 0.00 0.47 0.03 98 1017.8
20260902101600 72 0 1.0 2.0 0.00 0.47 0.03 98 1017.9
20260902101053 72 33 0.0 1.0 0.00 0.47 0.03 98 1017.8
20260902100553 72 33 0.0 1.0 0.00 0.47 0.03 98 1017.7
20260902100101 72 33 0.0 1.0 0.00 0.47 0.03 98 1017.7
20260902095551 72 33 0.0 1.0 0.00 0.47 0.03 98 1017.7
20260902095054 72 33 0.0 1.0 0.00 0.47 0.03 98 1017.7
20260902094558 72 33 0.0 1.0 0.00 0.47 0.03 98 1017.7
20260902094051 72 33 1.0 1.0 0.00 0.47 0.03 98 1017.7
20260902093551 72 0 0.0 0.0 0.00 0.47 0.03 98 1017.6
20260902093058 72 0 0.0 0.0 0.00 0.47 0.03 98 1017.6
20260902092554 72 0 0.0 0.0 0.00 0.47 0.03 98 1017.6
20260902092054 72 0 0.0 0.0 0.00 0.47 0.03 98 1017.5
20260902091600 72 0 0.0 0.0 0.00 0.47 0.03 98 1017.5
20260902091053 72 0 0.0 0.0 0.00 0.47 0.03 98 1017.5
20260902090556 72 0 0.0 0.0 0.00 0.47 0.03 98 1017.5
20260902090058 72 0 0.0 0.0 0.00 0.47 0.03 98 1017.5
20260902085554 72 0 0.0 0.0 0.00 0.47 0.03 98 1017.5
20260902085053 72 0 0.0 0.0 0.00 0.47 0.03 98 1017.4
20260902084609 72 0 0.0 0.0 0.00 0.47 0.03 98 1017.4
20260902084054 72 0 0.0 0.0 0.00 0.47 0.03 98 1017.3
20260902083554 72 0 0.0 1.0 0.00 0.47 0.03 98 1017.3
20260902083055 72 0 0.0 1.0 0.00 0.47 0.03 98 1017.2
20260902082553 72 0 0.0 0.0 0.00 0.47 0.03 98 1017.2
20260902082054 72 0 0.0 1.0 0.00 0.47 0.03 98 1017.1
20260902081605 72 0 0.0 1.0 0.00 0.47 0.03 98 1016.8
20260902081053 72 0 0.0 1.0 0.00 0.47 0.03 98 1016.7
20260902080551 72 63 0.0 1.0 0.00 0.47 0.03 98 1016.8
20260902080059 72 0 0.0 2.0 0.00 0.47 0.03 98 1016.8
20260902075553 72 63 0.0 3.0 0.00 0.47 0.03 98 1016.8
20260902075057 72 63 1.0 3.0 0.00 0.47 0.03 98 1016.8
20260902074612 72 63 2.0 3.0 0.00 0.47 0.03 98 1016.8
20260902074054 72 50 1.0 2.0 0.00 0.47 0.03 98 1016.8
20260902073553 72 50 2.0 2.0 0.00 0.47 0.03 98 1016.7
20260902073059 72 0 0.0 0.0 0.00 0.47 0.03 98 1016.6
20260902072553 72 0 0.0 2.0 0.00 0.47 0.03 98 1016.6
20260902072053 72 0 0.0 2.0 0.00 0.47 0.03 98 1016.5
20260902071602 72 49 2.0 2.0 0.00 0.47 0.03 98 1016.5
20260902071054 72 0 0.0 0.0 0.00 0.47 0.03 98 1016.3
20260902070552 72 0 0.0 0.0 0.00 0.47 0.03 98 1016.3
20260902070106 72 0 0.0 0.0 0.00 0.47 0.03 98 1016.2
20260902065553 72 0 0.0 0.0 0.00 0.47 0.03 98 1016.2
20260902065051 72 0 0.0 0.0 0.00 0.47 0.03 97 1016.2
20260902064601 72 0 0.0 0.0 0.00 0.47 0.03 98 1016.3
20260902064054 72 0 0.0 1.0 0.00 0.47 0.03 98 1016.3
20260902063553 72 0 0.0 1.0 0.00 0.47 0.03 98 1016.3
20260902063113 72 0 0.0 1.0 0.00 0.47 0.03 97 1016.3
20260902062554 72 0 0.0 0.0 0.00 0.47 0.03 97 1016.6
20260902062054 72 0 0.0 0.0 0.00 0.47 0.03 97 1016.6
20260902061608 72 0 0.0 0.0 0.00 0.47 0.03 97 1016.6
20260902061055 72 0 0.0 0.0 0.00 0.47 0.03 97 1016.7
20260902060551 72 0 0.0 0.0 0.00 0.47 0.03 97 1016.8
20260902060126 72 0 0.0 1.0 0.00 0.47 0.03 97 1016.7
20260902055553 72 0 0.0 1.0 0.00 0.47 0.03 97 1016.7
20260902055053 72 0 0.0 1.0 0.00 0.47 0.03 97 1016.6
20260902054608 72 131 0.0 0.0 0.01 0.47 0.03 97 1016.7
20260902054052 72 0 0.0 0.0 0.02 0.47 0.03 97 1017.0
20260902053553 72 0 0.0 0.0 0.02 0.47 0.03 97 1017.1
20260902053057 72 0 0.0 0.0 0.02 0.47 0.03 97 1016.9
20260902052554 72 0 0.0 1.0 0.02 0.47 0.03 97 1016.8
20260902052053 72 0 0.0 1.0 0.02 0.47 0.03 97 1016.8
20260902051603 72 0 0.0 1.0 0.02 0.47 0.03 97 1016.8
20260902051053 73 0 0.0 1.0 0.03 0.47 0.03 97 1016.6
20260902050553 73 0 0.0 1.0 0.03 0.47 0.03 97 1016.3
20260902050104 73 0 0.0 1.0 0.03 0.47 0.03 97 1016.2
20260902045550 72 0 0.0 0.0 0.03 0.47 0.03 97 1016.4
20260902045054 72 0 0.0 1.0 0.03 0.47 0.03 97 1016.6
20260902044607 72 0 0.0 1.0 0.02 0.46 0.02 97 1016.8
20260902044051 72 0 0.0 0.0 0.01 0.45 0.01 97 1016.7
20260902043550 72 0 0.0 0.0 0.01 0.45 0.01 97 1016.8
20260902043112 72 0 0.0 1.0 0.01 0.45 0.01 97 1017.0
20260902042556 72 0 0.0 1.0 0.01 0.45 0.01 97 1017.1
20260902042054 72 131 0.0 1.0 0.01 0.45 0.01 97 1017.2
20260902041608 72 0 0.0 2.0 0.01 0.45 0.01 97 1017.4
20260902041055 72 131 1.0 6.0 0.00 0.44 0.00 97 1017.4
20260902040553 72 0 1.0 9.0 0.00 0.44 0.00 97 1017.4
20260902040107 72 63 2.0 9.0 0.00 0.44 0.00 97 1017.2
20260902035553 72 58 4.0 7.0 0.00 0.44 0.44 97 1017.1
20260902035052 72 1 0.0 3.0 0.00 0.44 0.44 97 1016.4
20260902034614 72 1 2.0 3.0 0.00 0.44 0.44 97 1016.2
20260902034050 71 164 0.0 1.0 0.00 0.44 0.44 97 1016.1
20260902033553 71 166 0.0 1.0 0.00 0.44 0.44 97 1016.0
20260902033104 71 169 0.0 2.0 0.00 0.44 0.44 97 1016.0
20260902032555 71 0 0.0 2.0 0.00 0.44 0.44 97 1015.7
20260902032053 71 169 1.0 2.0 0.16 0.44 0.44 96 1015.7
20260902031604 71 171 0.0 2.0 0.40 0.44 0.44 96 1015.5
20260902031057 71 0 0.0 2.0 0.44 0.44 0.44 96 1015.5
20260902030555 71 195 0.0 2.0 0.44 0.44 0.44 96 1015.6
20260902030059 71 172 1.0 2.0 0.44 0.44 0.44 96 1015.4
20260902025553 71 160 0.0 2.0 0.44 0.44 0.44 96 1015.6
20260902025057 71 174 0.0 2.0 0.44 0.44 0.44 95 1015.7
20260902024557 71 180 0.0 2.0 0.44 0.44 0.44 95 1015.9
20260902024053 71 0 0.0 3.0 0.44 0.44 0.44 95 1016.0
20260902023554 71 0 1.0 10.0 0.44 0.44 0.44 94 1016.3
20260902023104 72 240 6.0 12.0 0.44 0.44 0.44 94 1016.6
20260902022554 73 216 4.0 12.0 0.44 0.44 0.44 93 1017.0
20260902022053 74 75 5.0 13.0 0.27 0.27 0.27 92 1017.8
20260902021609 76 46 3.0 14.0 0.03 0.03 0.03 89 1018.0
20260902021054 77 72 6.0 14.0 0.00 0.00 0.00 85 1017.3
20260902020554 78 303 5.0 14.0 0.00 0.00 0.00 82 1016.9
20260902020059 79 34 5.0 17.0 0.00 0.00 0.00 81 1016.3
20260902015554 80 56 6.0 17.0 0.00 0.00 0.00 80 1016.3
20260902015054 81 324 4.0 15.0 0.00 0.00 0.00 82 1015.9
20260902014600 81 51 6.0 15.0 0.00 0.00 0.00 86 1015.7
20260902014054 80 153 0.0 0.0 0.00 0.00 0.00 90 1014.6
20260902013554 80 0 0.0 0.0 0.00 0.00 0.00 90 1014.3
20260902013100 80 0 0.0 0.0 0.00 0.00 0.00 90 1014.3
20260902012553 80 0 0.0 0.0 0.00 0.00 0.00 90 1014.3
20260902012053 80 0 0.0 0.0 0.00 0.00 0.00 90 1014.1
20260902011559 80 0 0.0 0.0 0.00 0.00 0.00 90 1014.0
20260902011054 80 0 0.0 0.0 0.00 0.00 0.00 90 1013.8
20260902010553 80 0 0.0 0.0 0.00 0.00 0.00 90 1013.8
20260902005553 81 0 0.0 0.0 0.00 0.00 0.00 89 1014.0
20260902005058 81 0 0.0 0.0 0.00 0.00 0.00 89 1013.7
20260902004605 81 0 0.0 0.0 0.00 0.00 0.00 89 1013.8
20260902004054 81 0 0.0 0.0 0.00 0.00 0.00 89 1013.8
20260902003553 81 0 0.0 0.0 0.00 0.00 0.00 89 1013.9
20260902003135 81 0 0.0 0.0 0.00 0.00 0.00 89 1013.7
20260902002552 81 0 0.0 0.0 0.00 0.00 0.00 89 1013.8
20260902002052 81 0 0.0 0.0 0.00 0.00 0.00 88 1013.7
20260902001559 81 0 0.0 0.0 0.00 0.00 0.00 88 1013.3
20260902001054 82 0 0.0 0.0 0.00 0.00 0.00 88 1013.0
20260902000552 82 0 0.0 0.0 0.00 0.00 0.00 88 1012.9
20260902000101 82 0 0.0 0.0 0.00 0.00 0.00 88 1013.0
20260901235554 82 0 0.0 0.0 0.00 0.00 0.00 87 1013.1
20260901235054 82 0 0.0 0.0 0.00 0.00 0.00 87 1013.3
20260901234603 82 0 0.0 0.0 0.00 0.00 0.00 87 1013.5
20260901234054 83 0 0.0 0.0 0.00 0.00 0.00 87 1013.6
20260901233554 83 0 0.0 0.0 0.00 0.00 0.00 87 1013.7
20260901233103 83 0 0.0 0.0 0.00 0.00 0.00 87 1013.8
20260901232554 83 0 0.0 0.0 0.00 0.00 0.00 86 1013.9
20260901232054 83 0 0.0 0.0 0.00 0.00 0.00 86 1013.9
20260901231604 84 0 0.0 0.0 0.00 0.00 0.00 86 1013.6
20260901231053 84 0 0.0 0.0 0.00 0.00 0.00 86 1013.6
20260901230556 84 0 0.0 0.0 0.00 0.00 0.00 85 1013.8
20260901230058 84 0 0.0 0.0 0.00 0.00 0.00 85 1013.8
20260901225553 85 0 0.0 0.0 0.00 0.00 0.00 85 1013.8
20260901225054 85 0 0.0 0.0 0.00 0.00 0.00 84 1013.9
20260901224606 85 153 0.0 0.0 0.00 0.00 0.00 83 1013.8
20260901224054 85 153 0.0 0.0 0.00 0.00 0.00 83 1013.9
20260901223554 85 0 0.0 1.0 0.00 0.00 0.00 83 1013.9
20260901223101 86 0 0.0 1.0 0.00 0.00 0.00 83 1013.8
20260901222552 86 0 0.0 1.0 0.00 0.00 0.00 83 1013.8
20260901222054 86 153 0.0 1.0 0.00 0.00 0.00 82 1013.8
20260901221616 86 0 0.0 1.0 0.00 0.00 0.00 82 1013.9
20260901221054 86 126 0.0 1.0 0.00 0.00 0.00 82 1013.7
20260901220554 87 126 0.0 1.0 0.00 0.00 0.00 82 1013.7
20260901220059 87 0 0.0 1.0 0.00 0.00 0.00 81 1013.9
20260901215554 87 0 0.0 1.0 0.00 0.00 0.00 81 1014.0
20260901215054 87 153 0.0 0.0 0.00 0.00 0.00 81 1014.0
20260901214602 87 0 0.0 2.0 0.00 0.00 0.00 81 1014.0
20260901214053 87 0 0.0 2.0 0.00 0.00 0.00 81 1014.0
20260901213618 88 0 0.0 1.0 0.00 0.00 0.00 80 1014.0
20260901213105 88 0 0.0 1.0 0.00 0.00 0.00 79 1014.0
20260901212554 88 0 0.0 1.0 0.00 0.00 0.00 79 1014.2
20260901212053 88 0 0.0 1.0 0.00 0.00 0.00 78 1014.2
20260901211600 88 233 0.0 1.0 0.00 0.00 0.00 77 1014.2
20260901211054 88 233 0.0 2.0 0.00 0.00 0.00 78 1014.2
20260901210553 88 0 0.0 2.0 0.00 0.00 0.00 78 1014.2
20260901210130 88 0 0.0 3.0 0.00 0.00 0.00 77 1014.3
20260901205554 88 314 0.0 3.0 0.00 0.00 0.00 77 1014.3
20260901205054 88 314 1.0 3.0 0.00 0.00 0.00 78 1014.4
20260901204559 88 319 0.0 1.0 0.00 0.00 0.00 76 1014.3
20260901204054 88 319 0.0 2.0 0.00 0.00 0.00 75 1014.2
20260901203554 88 0 0.0 3.0 0.00 0.00 0.00 76 1014.2
20260901203103 88 319 1.0 3.0 0.00 0.00 0.00 74 1014.3
20260901202554 88 282 0.0 3.0 0.00 0.00 0.00 75 1014.3
20260901202055 88 325 0.0 3.0 0.00 0.00 0.00 75 1014.4
20260901201603 88 326 1.0 3.0 0.00 0.00 0.00 74 1014.5
20260901201055 87 236 0.0 2.0 0.00 0.00 0.00 75 1014.5
20260901200556 87 225 0.0 2.0 0.00 0.00 0.00 78 1014.6
20260901200058 87 242 0.0 2.0 0.00 0.00 0.00 79 1014.5
20260901195553 87 0 0.0 2.0 0.00 0.00 0.00 79 1014.6
20260901195054 86 0 0.0 1.0 0.00 0.00 0.00 77 1014.7
20260901194604 86 0 0.0 1.0 0.00 0.00 0.00 78 1014.9
20260901194056 86 0 0.0 1.0 0.00 0.00 0.00 79 1015.0
20260901193557 87 170 0.0 1.0 0.00 0.00 0.00 78 1015.1
20260901193107 87 314 0.0 1.0 0.00 0.00 0.00 76 1015.1
20260901192553 87 0 0.0 1.0 0.00 0.00 0.00 76 1015.1
20260901192054 87 0 0.0 3.0 0.00 0.00 0.00 75 1015.1
20260901191615 87 0 0.0 3.0 0.00 0.00 0.00 76 1015.1
20260901191053 87 314 1.0 3.0 0.00 0.00 0.00 78 1015.1
20260901190554 87 0 0.0 3.0 0.00 0.00 0.00 77 1015.0
20260901190124 87 344 0.0 3.0 0.00 0.00 0.00 78 1015.0
20260901185555 87 0 1.0 3.0 0.00 0.00 0.00 77 1015.0
20260901185051 87 319 0.0 1.0 0.00 0.00 0.00 78 1015.1
20260901184602 87 319 0.0 4.0 0.00 0.00 0.00 78 1015.1
20260901184052 86 0 2.0 4.0 0.00 0.00 0.00 77 1015.2
20260901183553 86 319 0.0 2.0 0.00 0.00 0.00 78 1015.1
20260901183106 85 319 0.0 2.0 0.00 0.00 0.00 82 1015.2
20260901182552 85 318 0.0 0.0 0.00 0.00 0.00 83 1015.2
20260901182052 84 0 0.0 0.0 0.00 0.00 0.00 85 1015.3
20260901181600 84 0 0.0 0.0 0.00 0.00 0.00 84 1015.3
20260901181051 84 0 0.0 0.0 0.00 0.00 0.00 85 1015.3
20260901180551 84 0 0.0 0.0 0.00 0.00 0.00 84 1015.3
20260901180058 84 318 0.0 0.0 0.00 0.00 0.00 83 1015.2
20260901175555 85 0 0.0 0.0 0.00 0.00 0.00 81 1015.3
20260901175052 85 0 0.0 0.0 0.00 0.00 0.00 81 1015.3
20260901174602 86 0 0.0 0.0 0.00 0.00 0.00 80 1015.3
20260901174052 86 0 0.0 1.0 0.00 0.00 0.00 78 1015.3
20260901173551 86 318 0.0 1.0 0.00 0.00 0.00 78 1015.4
20260901173102 86 0 0.0 0.0 0.00 0.00 0.00 78 1015.3
20260901172551 86 0 0.0 0.0 0.00 0.00 0.00 77 1015.3
20260901172059 86 0 0.0 0.0 0.00 0.00 0.00 80 1015.4
20260901171636 86 0 0.0 0.0 0.00 0.00 0.00 79 1015.5
20260901171052 87 0 0.0 1.0 0.00 0.00 0.00 81 1015.5
20260901170552 87 0 0.0 1.0 0.00 0.00 0.00 79 1015.6
20260901170107 87 319 0.0 2.0 0.00 0.00 0.00 80 1015.5
20260901165553 87 0 0.0 3.0 0.00 0.00 0.00 79 1015.6
20260901165056 87 316 0.0 3.0 0.00 0.00 0.00 78 1015.7
20260901164613 87 230 0.0 2.0 0.00 0.00 0.00 77 1015.7
20260901164052 87 229 0.0 2.0 0.00 0.00 0.00 79 1015.8
20260901163557 87 200 1.0 2.0 0.00 0.00 0.00 79 1015.7
20260901163115 86 321 0.0 2.0 0.00 0.00 0.00 79 1015.8
20260901162551 86 322 0.0 5.0 0.00 0.00 0.00 80 1015.9
20260901162054 86 0 1.0 5.0 0.00 0.00 0.00 79 1015.9
20260901161608 86 340 1.0 4.0 0.00 0.00 0.00 80 1015.9
20260901161051 86 322 2.0 4.0 0.00 0.00 0.00 80 1015.9
20260901160555 86 317 1.0 3.0 0.00 0.00 0.00 81 1015.9
20260901155556 85 317 1.0 4.0 0.00 0.00 0.00 81 1016.1
20260901155057 85 320 1.0 4.0 0.00 0.00 0.00 82 1016.1
20260901154558 84 323 1.0 5.0 0.00 0.00 0.00 83 1016.2
20260901154053 84 319 1.0 5.0 0.00 0.00 0.00 83 1016.2
20260901153554 84 311 0.0 2.0 0.00 0.00 0.00 84 1016.2
20260901153100 84 311 0.0 2.0 0.00 0.00 0.00 84 1016.3
20260901152554 84 311 0.0 2.0 0.00 0.00 0.00 85 1016.2
20260901152054 84 0 1.0 2.0 0.00 0.00 0.00 85 1016.3
20260901151607 84 0 0.0 2.0 0.00 0.00 0.00 85 1016.3
20260901151055 84 298 1.0 2.0 0.00 0.00 0.00 84 1016.3
20260901150553 84 298 0.0 1.0 0.00 0.00 0.00 85 1016.3
20260901150057 84 0 0.0 1.0 0.00 0.00 0.00 85 1016.3
20260901145554 84 0 0.0 2.0 0.00 0.00 0.00 85 1016.4
20260901145055 84 298 0.0 2.0 0.00 0.00 0.00 84 1016.4
20260901144603 84 289 0.0 2.0 0.00 0.00 0.00 85 1016.3
20260901144053 83 0 1.0 2.0 0.00 0.00 0.00 84 1016.3
20260901143553 84 323 0.0 3.0 0.00 0.00 0.00 84 1016.2
20260901143106 84 333 1.0 3.0 0.00 0.00 0.00 84 1016.2
20260901142554 84 0 0.0 2.0 0.00 0.00 0.00 84 1016.2
20260901142054 84 245 1.0 2.0 0.00 0.00 0.00 84 1016.2
20260901141559 84 283 0.0 2.0 0.00 0.00 0.00 84 1016.3
20260901141054 84 272 0.0 2.0 0.00 0.00 0.00 85 1016.3
20260901140553 83 229 0.0 2.0 0.00 0.00 0.00 86 1016.3
20260901140105 82 288 0.0 1.0 0.00 0.00 0.00 86 1016.4
20260901135554 82 0 0.0 1.0 0.00 0.00 0.00 89 1016.4
20260901135054 81 247 0.0 1.0 0.00 0.00 0.00 90 1016.5
20260901134605 80 247 0.0 1.0 0.00 0.00 0.00 91 1016.5
20260901134055 80 266 0.0 1.0 0.00 0.00 0.00 92 1016.6
20260901133553 80 266 0.0 1.0 0.00 0.00 0.00 93 1016.6
20260901133108 79 276 0.0 1.0 0.00 0.00 0.00 94 1016.8
20260901132556 78 174 0.0 1.0 0.00 0.00 0.00 95 1016.7
20260901132054 78 0 0.0 1.0 0.00 0.00 0.00 96 1016.7
20260901131602 77 174 0.0 1.0 0.00 0.00 0.00 96 1016.9
20260901131054 77 0 0.0 0.0 0.00 0.00 0.00 97 1016.9
20260901130554 76 0 0.0 0.0 0.00 0.00 0.00 97 1017.0
20260901130107 76 0 0.0 0.0 0.00 0.00 0.00 98 1017.0
20260901125553 76 0 0.0 1.0 0.00 0.00 0.00 98 1017.1
20260901125053 75 0 0.0 1.0 0.00 0.00 0.00 98 1017.1
20260901124603 75 0 0.0 1.0 0.00 0.00 0.00 98 1017.2
20260901124053 75 174 0.0 0.0 0.00 0.00 0.00 98 1017.2
20260901123553 75 0 0.0 0.0 0.00 0.00 0.00 98 1017.1
20260901123117 74 0 0.0 0.0 0.00 0.00 0.00 98 1017.1
20260901122552 74 0 0.0 1.0 0.00 0.00 0.00 98 1017.1
20260901122055 74 0 0.0 1.0 0.00 0.00 0.00 98 1017.1
20260901121605 74 174 0.0 0.0 0.00 0.00 0.00 98 1017.2
20260901121055 74 0 0.0 0.0 0.00 0.00 0.00 98 1017.2
20260901120554 74 0 0.0 0.0 0.00 0.00 0.00 98 1017.1